History for OIMB

Birjand, Iran

Daily Weekly Monthly
Daily Summary for Monday, March 25, 2019
  Actual: Average: Record:
Temperature
Mean Temperature: 60 °F / 16 °C - :  
Max Temperature: 71 °F / 22 °C - - ()
Min Temperature: 49 °F / 9 °C - - ()
Degree Days
Heating Degree Days: 5    
Growing Degree Days 10 (Base 50)    
Moisture
Dew Point 39 °F / 4 °C    
Average Humidity 46    
Maximum Humidity 66    
Minimum Humidity 14    
Precipitation
Precipitation 0.00 in / 0.0 cm - - ()
Sea Level Pressure
Sea Level Pressure 29.97 in / 1014.61 hPa   
Wind
Wind Speed 15 mph / 25 km/h ()  
Max Wind Speed 25 mph / 41 km/h   
Max Gust Speed -   
Visibility 5.7 miles / 9.3 kilometers   
Events     

Key: T is trace of precipitation, MM is missing value
Source: Averaged Metar Reports

Graphs

Observations

History Graphs Observations

Obs Go Here...

Features

Weather Apps

WunderRadio

Weather Underground Apps
Check out our wide variety of mobile and setup applications.

Weather Underground Applications

Top of Page

© Copyright 2019
The Weather Company, LLC
Time(+0430)TemperatureDew PointHumidity Sea Level Pressure Visibility Wind DirectionWind SpeedGust SpeedPrecipitationEvents Conditions
12:30 AM 53.6 °F / 12.0 °C 37.4 °F / 3.0 °C 54% 30.01 in / 1016 hPa 6.2 miles / 10.0 kilometers East 21.9 mph / 35.2 km/h - N/A   Scattered Clouds
1:30 AM 53 °F / 11 °C 39 °F / 4 °C 47% 29.81 in / 1009 hPa 6 miles / 10 kilometers East 15.7 mph / 25.2 km/h - -   Clear
1:30 AM 51.8 °F / 11.0 °C 39.2 °F / 4.0 °C 62% 30.01 in / 1016 hPa - East 16.1 mph / 25.9 km/h - N/A   Clear
2:30 AM 51.8 °F / 11.0 °C 37.4 °F / 3.0 °C 58% 30.01 in / 1016 hPa - East 13.8 mph / 22.2 km/h - N/A   Clear
3:30 AM 50.0 °F / 10.0 °C 37.4 °F / 3.0 °C 62% 30.01 in / 1016 hPa - ESE 16.1 mph / 25.9 km/h - N/A   Clear
4:30 AM 50 °F / 10 °C 38 °F / 4 °C 54% 29.81 in / 1009 hPa 6 miles / 10 kilometers East 15.7 mph / 25.2 km/h - -  
4:30 AM 50.0 °F / 10.0 °C 39.2 °F / 4.0 °C 66% 29.98 in / 1015 hPa - East 16.1 mph / 25.9 km/h - N/A   Clear
5:30 AM 51.8 °F / 11.0 °C 37.4 °F / 3.0 °C 58% 30.01 in / 1016 hPa - East 16.1 mph / 25.9 km/h - N/A   Clear
6:30 AM 50.0 °F / 10.0 °C 39.2 °F / 4.0 °C 66% 30.04 in / 1017 hPa 6.2 miles / 10.0 kilometers East 13.8 mph / 22.2 km/h - N/A   Mostly Cloudy
7:30 AM 51 °F / 11 °C 39 °F / 4 °C 52% 29.90 in / 1012 hPa 6 miles / 10 kilometers ESE 15.7 mph / 25.2 km/h - -   Overcast
7:30 AM 51.8 °F / 11.0 °C 39.2 °F / 4.0 °C 62% 30.04 in / 1017 hPa 6.2 miles / 10.0 kilometers ESE 16.1 mph / 25.9 km/h - N/A   Overcast
8:30 AM 53.6 °F / 12.0 °C 39.2 °F / 4.0 °C 58% 30.04 in / 1017 hPa 6.2 miles / 10.0 kilometers ESE 18.4 mph / 29.6 km/h - N/A   Overcast
9:30 AM 57.2 °F / 14.0 °C 41.0 °F / 5.0 °C 55% 30.04 in / 1017 hPa 6.2 miles / 10.0 kilometers East 18.4 mph / 29.6 km/h - N/A   Overcast
10:30 AM 59 °F / 15 °C 41 °F / 5 °C 40% 29.89 in / 1012 hPa 6 miles / 10 kilometers ESE 15.7 mph / 25.2 km/h - -   Overcast
10:30 AM 59.0 °F / 15.0 °C 41.0 °F / 5.0 °C 51% 30.06 in / 1018 hPa 6.2 miles / 10.0 kilometers ESE 16.1 mph / 25.9 km/h - N/A   Overcast
11:30 AM 60.8 °F / 16.0 °C 41.0 °F / 5.0 °C 48% 30.06 in / 1018 hPa 6.2 miles / 10.0 kilometers ESE 18.4 mph / 29.6 km/h - N/A   Overcast
12:30 PM 62.6 °F / 17.0 °C 41.0 °F / 5.0 °C 45% 30.04 in / 1017 hPa 6.2 miles / 10.0 kilometers East 18.4 mph / 29.6 km/h - N/A   Overcast
1:30 PM 67 °F / 19 °C 39 °F / 4 °C 25% 29.82 in / 1010 hPa 6 miles / 10 kilometers ESE 17.9 mph / 28.8 km/h - -   Overcast
1:30 PM 66.2 °F / 19.0 °C 39.2 °F / 4.0 °C 37% 30.01 in / 1016 hPa 6.2 miles / 10.0 kilometers ESE 18.4 mph / 29.6 km/h - N/A   Overcast
2:30 PM 69.8 °F / 21.0 °C 33.8 °F / 1.0 °C 27% 29.98 in / 1015 hPa 6.2 miles / 10.0 kilometers South 6.9 mph / 11.1 km/h - N/A   Overcast
4:30 PM 71 °F / 22 °C 32 °F / 0 °C 14% 29.79 in / 1009 hPa 6 miles / 10 kilometers SSW 8.9 mph / 14.4 km/h - -   Overcast
4:30 PM 71.6 °F / 22.0 °C 32.0 °F / 0.0 °C 23% 29.98 in / 1015 hPa 6.2 miles / 10.0 kilometers SSW 9.2 mph / 14.8 km/h - N/A   Overcast
5:30 PM 69.8 °F / 21.0 °C 33.8 °F / 1.0 °C 27% 30.01 in / 1016 hPa 5.0 miles / 8.0 kilometers South 9.2 mph / 14.8 km/h - N/A   Overcast
6:30 PM 66.2 °F / 19.0 °C 39.2 °F / 4.0 °C 37% 29.98 in / 1015 hPa 5.0 miles / 8.0 kilometers ESE 16.1 mph / 25.9 km/h - N/A   Overcast
7:30 PM 63 °F / 17 °C 39 °F / 4 °C 30% 29.83 in / 1010 hPa 5 miles / 8 kilometers East 20.1 mph / 32.4 km/h - -   Blowing Sand
7:30 PM 62.6 °F / 17.0 °C 39.2 °F / 4.0 °C 42% 30.01 in / 1016 hPa 5.0 miles / 8.0 kilometers East 20.7 mph / 33.3 km/h - N/A   Overcast
8:30 PM 62.6 °F / 17.0 °C 39.2 °F / 4.0 °C 42% 30.01 in / 1016 hPa 5.0 miles / 8.0 kilometers ESE 21.9 mph / 35.2 km/h - N/A   Unknown
9:30 PM 60.8 °F / 16.0 °C 41.0 °F / 5.0 °C 48% 30.01 in / 1016 hPa 5.0 miles / 8.0 kilometers ESE 25.3 mph / 40.7 km/h - N/A   Mostly Cloudy
10:30 PM 61 °F / 16 °C 43 °F / 6 °C 40% 29.82 in / 1010 hPa 5 miles / 8 kilometers ESE 22.4 mph / 36.0 km/h - -   Blowing Sand
10:30 PM 60.8 °F / 16.0 °C 42.8 °F / 6.0 °C 52% 30.01 in / 1016 hPa 5.0 miles / 8.0 kilometers ESE 21.9 mph / 35.2 km/h - N/A   Overcast
11:30 PM 60.8 °F / 16.0 °C 41.0 °F / 5.0 °C 48% 29.98 in / 1015 hPa 5.0 miles / 8.0 kilometers ESE 23.0 mph / 37.0 km/h - N/A   Overcast